Regional Weather Roundup
Issued by NWS Tiyan, Guam

Home | Current Version | Previous Version | Text Only | Print | Product List | Glossary On
Versions: 1 2 3 4 5 6 7 8 9 10 11 12 13 14 15 16 17 18 19 20 21 22 23 24 25 26 27 28 29 30 31 32 33 34 35 36 37 38 39 40 41 42 43 44 45 46 47 48 49 50
000
ASGM40 PGUM 260412
RWRGUM
WEATHER ROUNDUP FOR THE MARIANAS
NATIONAL WEATHER SERVICE TIYAN GU
200 PM CHST WED APR 26 2017

GUZ001>004-260500-
MARIANA ISLANDS-

CITY           SKY/WX    TMP DP  RH WIND       PRES   REMARKS
GUAM AIRPORT   MOSUNNY   84  75  74 SE7G16    29.88F HX  92
ANDERSEN AFB   PTSUNNY   81  77  89 SE10      29.88F
ROTA AIRPORT   PTSUNNY   82  77  83 E13       29.87F HX  91
TINIAN AP      PTSUNNY   84  73  70 E12       29.85F HX  91
SAIPAN AP      SUNNY     84  73  70 E15       29.86F HX  91

$$




USA.gov is the U.S. government's official web portal to all federal, state and local government web resources and services.